Regional Weather Roundup
Issued by NWS Charleston, SC

Current Version | Previous Version | Graphics & Text | Print | Product List | Glossary On
Versions: 1 2 3 4 5 6 7 8 9 10 11 12 13 14 15 16 17 18 19 20 21 22 23 24 25 26 27 28 29 30 31 32 33 34 35 36 37 38 39 40 41 42 43 44 45 46 47 48 49 50
000 ASUS42 KCHS 281413 RWRCHS REGIONAL WEATHER ROUNDUP NATIONAL WEATHER SERVICE CHARLESTON SC 1000 AM EDT SUN AUG 28 2016 NOTE: "FAIR" INDICATES FEW OR NO CLOUDS BELOW 12,000 FEET WITH NO SIGNIFICANT WEATHER AND/OR OBSTRUCTIONS TO VISIBILITY. NOT ALL STATIONS ARE QUALITY CONTROLLED. USE DATA WITH CAUTION... ESPECIALLY DEWPOINT OBSERVATIONS. SCZ027-030-031-034>040-042>050-281500- ...SOUTHEAST SOUTH CAROLINA... CITY SKY/WX TMP DP RH WIND PRES REMARKS N CHARLESTON MOSUNNY 84 74 71 N8 30.12R HX 91 WATERFRONT PRK N/A 83 77 81 NE8 30.09S HX 92 MOUNT PLEASANT FAIR 82 77 83 NE7 30.12R HX 91 JOHNS ISLAND CLOUDY 84 77 79 NE7 30.12R HX 94 PINOPOLIS N/A 81 75 83 NE7 30.07R MONCKS CORNER PTSUNNY 81 73 78 E7 30.13S SUMMERVILLE FAIR 84 77 79 N8 30.14R HX 94 BEAUFORT MCAS MOSUNNY 86 75 69 E7 30.12R HX 95 BEAUFORT ARPT FAIR 82 75 78 NE9 30.11S HILTON HEAD IS MOSUNNY 86 77 74 E9 30.12R HX 97 WALTERBORO MOSUNNY 86 75 70 NE7 30.14S HX 95 ALLENDALE FAIR 84 73 70 VRB6 30.14R HX 91 ...SOUTHERN MIDLANDS AND PEE DEE... CITY SKY/WX TMP DP RH WIND PRES REMARKS GEORGETOWN FAIR 81 75 83 N8 30.14R KINGSTREE FAIR 82 72 69 NE6 30.15R ORANGEBURG PTSUNNY 84 72 67 E9 30.16R BARNWELL NOT AVBL AIKEN CLOUDY 79 70 73 NE3 30.20R MANNING FAIR 81 73 78 NE6 30.15S COLUMBIA MOSUNNY 83 72 69 E6 30.15S SUMTER SUNNY 83 73 70 NE5 30.14S FLORENCE SUNNY 84 73 69 NE7 30.16R HX 90 MYRTLE BEACH MOSUNNY 84 70 61 NE9 30.14S N MYRTLE BEACH MOSUNNY 84 74 71 NE13 30.12S HX 91 $$ GAZ063-065-086>088-099>101-113>116-118-119-134>141-150-281500- ...SOUTHEAST GEORGIA... CITY SKY/WX TMP DP RH WIND PRES REMARKS SAVANNAH ARPT MOSUNNY 85 74 69 NE10 30.11R HX 92 HUNTER AAF MOSUNNY 85 79 83 NE10 30.08R HX 98 FORT STEWART SUNNY 84 74 71 NE8 30.08R HX 91 STATESBORO SUNNY 84 76 75 E5 30.13S HX 93 SYLVANIA NOT AVBL CLAXTON FAIR 84 75 75 N12 30.12S HX 92 ...CSRA...CENTRAL AND FAR SOUTHEAST GEORGIA... CITY SKY/WX TMP DP RH WIND PRES REMARKS THOMSON SUNNY 83 75 76 MISG 30.20S HX 90 AUGUSTA-BUSH PTSUNNY 83 72 69 E7 30.14S AUGUSTA-DANIEL MOSUNNY 83 71 67 E7 30.16R SWAINSBORO FAIR 82 72 69 SE9 30.14S VIDALIA SUNNY 84 77 79 E12G17 30.12S HX 94 EASTMAN FAIR 84 66 54 E8 30.15S HAZLEHURST FAIR 84 77 80 E3 30.11R HX 93 ALMA SUNNY 83 74 74 E5 30.10R WAYCROSS N/A 87 78 74 E10 30.10R HX 101 JESUP FAIR 86 79 79 E8 30.11R HX 99 BAXLEY FAIR 82 79 89 NE7 30.11R HX 93 BRUNSWICK PTSUNNY 88 75 66 NE13 30.09R HX 97 SAINT SIMONS MOSUNNY 84 72 67 E14G24 30.08R $$ SCZ027-028-034-036>038-045-046-048>050-GAZ119-141-281500- ...LAKE AND SUPPLEMENTAL COASTAL OBSERVATIONS... STATION/POSITION TIME TEMP WIND PRES WAVE SWELL AIR SEA DIR/SP/G HT/PER HT/PER/DIR (UTC) (F) (DEG/KT/KT) (MB) (FT/S) (FT/S/D) WINYAH BAY 1245 78 10/ 4 1019.0 LAKE MURRAY 1300 79 30/ 2/ 5 1020.7R ACE BASIN NERRS NOT AVBL FORT PULASKI 1300 82 85 30/ 8/ 10 1019.4R SAPELO ISLAND 1300 85 60/ 11 1018.0S $$ ANZ835-935-AMZ111-154-330-350-352-354-370-450-454-472-281500- ...C-MAN AND BUOY OBSERVATIONS... STATION/POSITION TIME TEMP WIND PRES WAVE SWELL AIR SEA DIR/SP/G HT/PER HT/PER/DIR (UTC) (F) (DEG/KT/KT) (MB) (FT/S) (FT/S/D) BUOY 41004 1350 84 84 70/ 12/ 14 1018.8R 3/ 9 3/110/ 9 BUOY 41008 1350 82 85 70/ 16/ 17 1018.3R 3/ 9 2/110/ 9 FOLLY BEACH CMAN 1400 82 30/ 8/ 9 1020.0R CAPERS NEARSHORE 1308 81 84 40/ 12/ 16 1019.3R FRIPP NEARSHORE 1308 84 86 70/ 14/ 19 1018.6R STATION/POSITION TIME TEMP WIND PRES WAVE SWELL AIR SEA DIR/SP/G HT/PER HT/PER/DIR (UTC) (F) (DEG/KT/KT) (MB) (FT/S) (FT/S/D) 5E ST. MARYS GA 1301 85 N/A 4/ 8 FRYING PAN BUOY 1300 82 84 20/ 12/ 14 1018.9R BUOY 41025 1350 84 85 80/ 8/ 10 1019.9R 3/ 8 3/110/ 8 CAPE LOOKOUT NC 1300 81 10/ 6/ 7 1019.6R BUOY 41002 1350 82 84 60/ 10/ 12 1018.1R 4/ 7 3/120/ 7 BUOY 41010 NOT AVBL ST AUGUSTINE FL 1400 83 83 60/ 13/ 14 1018.3R $$

USA.gov is the U.S. government's official web portal to all federal, state and local government web resources and services.